COSMOS 894 DEB, 45506

Orbit data source: Space-Track

COSMOS 894 DEB, 45506 is space debris in LEO originally from a launch on Mon, 21 Feb 1977 UTC launched from the Plesetsk Missile And Space Complex (PKMTR). Debris objects in space refer to the collection of defunct objects orbiting the Earth. Examples of debris include non-operational satellites, rocket bodies, and fragments generated from explosions, collisions, or faulty payload assembly.

Loading next visibility...
Identifier
45506, 1977-013C
Orbit
LEO
Last TLE update
17 hours ago
Origin
Manufacturer
Unknown
Mission
Spacecraft
Bus & Motor
Unknown
Mass
Unknown
Launch date (UTC)
1977-02-21 (48 years ago)
Launch vehicle
Unknown
Launch site
Plesetsk Missile And Space Complex (PKMTR)
Object type
Payload
Rocket body
Debris
Shape & HBR
Unknown
Radar Cross Section
Small (<0.1 m²)

Expand to show TLE details & history

TLE from 17 hours ago
0 COSMOS 894 DEB
1 45506U 77013C   25183.43359425  .00000521  00000-0  49478-3 0  9995
2 45506  82.9432 345.2264 0029011  68.2483 292.1759 13.78947750564797
Epoch: 2025-07-02T10:24Z
TLE epoch observation values (Epoch: 2025-07-02T10:24:22.543Z)
Latitude
0.00003°
Longitude
-91.58229°
Altitude
962.534 km
Speed
7.374 km/s
True Right ascension
23h 00m 54s
True Declination
0° 00' 00"
Sunlit
Object was in daylight at epoch
Visualization orbit readout
Latitude
-67.9371°
Longitude
-109.80172°
Altitude
1,008.31 km
Speed
7.339 km/s
Apparent Right ascension
01h 24m 44s
Apparent Declination
-61° 14' 60"
Sunlit
Object is in full shadow
Visualization observer readout
Local Sidereal Time
15:14:23
Azimuth
150.937° SSE
Elevation
-62.88°
Doppler factor
1
Orbital elements
Apogee altitude
986.067 km
Perigee altitude
943.462 km
Semi-major axis
7,342.902 km
Eccentricity
0.0029
Inclination
82.9432°
RAAN
345.2264°
Arg. of periapsis
68.2483°
True anomaly
Unknown
Mean anomaly
292.1759°
Eccentric anomaly
Unknown
Mean motion
3.44938 °/min
Orbital period
104.37 mins
BSTAR
0.00049478
Loading maneuver chart data...
Loading SW <> Apogee altitude chart data...
Loading historical data...
Loading historical data...
Loading historical data...
Loading historical data...
Loading historical data...
Loading historical data...
Loading historical data...
Other satellites on launch #13 in the year 1977 (1977-02-21 UTC)

COSMOS 894 DEB Visibility forecast

Observer location: undefined°, undefined°

Span
Click to sort rows by Start time (UTC) header in descending order
Start Az.
Max El. time (UTC)
Max El. Az.
Max El.
End time (UTC)
End Az.
11 mins2025-07-03 10:53:11.740Z160.013° S2025-07-03 10:58:11.740Z103.867° ESE34.942°2025-07-03 11:04:11.740Z20.516° NNE
8 mins2025-07-03 12:40:11.740Z240.514° WSW2025-07-03 12:44:11.740Z289.461° WNW22.991°2025-07-03 12:48:11.740Z336.647° NNW
9 mins2025-07-03 21:50:11.740Z20.96° NNE2025-07-03 21:54:11.740Z80.947° E30.123°2025-07-03 21:59:11.740Z139.408° SSE
9 mins2025-07-03 23:35:11.740Z324.263° NNW2025-07-03 23:39:11.740Z269.378° W27.953°2025-07-03 23:44:11.740Z213.023° SW
|